When you browse on this site, cookies collect data to enhance your experience and personalize the content and advertising you see.
Visit our Privacy Policy to learn more. By continuing to use the site, you agree to this use of cookies and data.
  • In Portugal
  • List of Countries
  • For 7 days
  • Water Temperature
  • Satellite Maps
  • Weather Map
  • Weather Widgets
  • user-avatar
    Login

    Hourly Weather Pabna

    Today, 23 May, Thursday

    Time Temperature Precipitation Wind Pressure Humidity
    00:00 +33°C° 0 mm 3 mps 751 mmHg 75%
    01:00 +33°C° 2.5 mm 3 mps 751 mmHg 78%
    02:00 +32°C° 2.5 mm 4 mps 751 mmHg 80%
    03:00 +32°C° 2.5 mm 5 mps 751 mmHg 83%
    04:00 +32°C° 0 mm 5 mps 751 mmHg 82%
    05:00 +32°C° 0 mm 5 mps 751 mmHg 82%
    06:00 +32°C° 0 mm 6 mps 751 mmHg 81%
    07:00 +33°C° 0 mm 5 mps 752 mmHg 75%
    08:00 +34°C° 0 mm 5 mps 752 mmHg 69%
    09:00 +36°C° 0 mm 4 mps 752 mmHg 62%
    10:00 +37°C° 0 mm 4 mps 752 mmHg 55%
    11:00 +40°C° 0 mm 4 mps 752 mmHg 49%
    12:00 +42°C° 0 mm 4 mps 751 mmHg 42%
    13:00 +43°C° 0 mm 4 mps 750 mmHg 38%
    14:00 +44°C° 0 mm 4 mps 749 mmHg 35%
    15:00 +45°C° 0 mm 4 mps 749 mmHg 31%
    16:00 +44°C° 0 mm 4 mps 748 mmHg 34%
    17:00 +43°C° 0 mm 4 mps 747 mmHg 38%
    18:00 +42°C° 0 mm 4 mps 747 mmHg 41%
    19:00 +37°C° 18.8 mm 5 mps 748 mmHg 53%
    20:00 +34°C° 18.8 mm 5 mps 749 mmHg 66%
    21:00 +30°C° 18.8 mm 6 mps 750 mmHg 78%
    22:00 +32°C° 0.1 mm 5 mps 750 mmHg 77%
    23:00 +32°C° 0.1 mm 4 mps 750 mmHg 76%

    Tomorrow, 24 May, Friday

    Time Temperature Precipitation Wind Pressure Humidity
    00:00 +33°C° 0.1 mm 3 mps 750 mmHg 75%
    01:00 +33°C° 0 mm 3 mps 750 mmHg 76%
    02:00 +31°C° 0 mm 3 mps 750 mmHg 77%
    03:00 +31°C° 0 mm 3 mps 749 mmHg 79%
    04:00 +32°C° 0 mm 4 mps 750 mmHg 79%
    05:00 +32°C° 0 mm 5 mps 750 mmHg 80%
    06:00 +32°C° 0 mm 6 mps 750 mmHg 80%
    07:00 +33°C° 0 mm 6 mps 750 mmHg 76%
    08:00 +34°C° 0 mm 6 mps 751 mmHg 72%
    09:00 +35°C° 0 mm 5 mps 751 mmHg 68%
    10:00 +37°C° 0 mm 5 mps 751 mmHg 62%
    11:00 +39°C° 0 mm 5 mps 750 mmHg 56%
    12:00 +41°C° 0 mm 4 mps 750 mmHg 50%
    13:00 +42°C° 0 mm 4 mps 749 mmHg 46%
    14:00 +43°C° 0 mm 4 mps 749 mmHg 42%
    15:00 +44°C° 0 mm 4 mps 748 mmHg 38%
    16:00 +43°C° 0.1 mm 4 mps 747 mmHg 43%
    17:00 +42°C° 0.1 mm 4 mps 747 mmHg 47%
    18:00 +41°C° 0.1 mm 4 mps 746 mmHg 51%
    19:00 +38°C° 0.9 mm 4 mps 747 mmHg 56%
    20:00 +37°C° 0.9 mm 5 mps 747 mmHg 61%
    21:00 +35°C° 0.9 mm 6 mps 748 mmHg 67%
    22:00 +35°C° 0 mm 6 mps 748 mmHg 69%
    23:00 +34°C° 0 mm 5 mps 748 mmHg 71%

    Day after tomorrow, 25 May, Saturday

    Time Temperature Precipitation Wind Pressure Humidity
    00:00 +33°C° 0 mm 5 mps 748 mmHg 74%
    01:00 +33°C° 0 mm 5 mps 748 mmHg 74%
    02:00 +33°C° 0 mm 5 mps 748 mmHg 74%
    03:00 +33°C° 0 mm 5 mps 747 mmHg 75%
    04:00 +32°C° 0 mm 5 mps 747 mmHg 75%
    05:00 +32°C° 0 mm 6 mps 747 mmHg 76%
    06:00 +32°C° 0 mm 6 mps 748 mmHg 76%
    07:00 +33°C° 0 mm 5 mps 748 mmHg 72%
    08:00 +35°C° 0 mm 5 mps 749 mmHg 69%
    09:00 +36°C° 0 mm 4 mps 749 mmHg 65%
    10:00 +37°C° 0 mm 4 mps 749 mmHg 60%
    11:00 +40°C° 0 mm 4 mps 749 mmHg 54%
    12:00 +41°C° 0 mm 4 mps 749 mmHg 48%
    13:00 +43°C° 0 mm 3 mps 748 mmHg 43%
    14:00 +44°C° 0 mm 3 mps 747 mmHg 38%
    15:00 +45°C° 0 mm 3 mps 746 mmHg 33%
    16:00 +44°C° 0 mm 3 mps 746 mmHg 35%
    17:00 +43°C° 0 mm 2 mps 745 mmHg 36%
    18:00 +42°C° 0 mm 2 mps 745 mmHg 37%
    19:00 +41°C° 0 mm 4 mps 746 mmHg 46%
    20:00 +39°C° 0 mm 6 mps 747 mmHg 55%
    21:00 +37°C° 0 mm 8 mps 747 mmHg 64%
    22:00 +35°C° 0 mm 7 mps 747 mmHg 68%
    23:00 +35°C° 0 mm 6 mps 747 mmHg 72%

    26 May, Sunday

    Time Temperature Precipitation Wind Pressure Humidity
    00:00 +34°C° 0 mm 5 mps 747 mmHg 75%
    01:00 +33°C° 0 mm 6 mps 747 mmHg 76%
    02:00 +33°C° 0 mm 7 mps 747 mmHg 77%
    03:00 +33°C° 0 mm 7 mps 747 mmHg 78%
    04:00 +33°C° 0 mm 6 mps 747 mmHg 77%
    05:00 +33°C° 0 mm 6 mps 747 mmHg 77%
    06:00 +33°C° 0 mm 5 mps 748 mmHg 77%
    07:00 +34°C° 0 mm 5 mps 748 mmHg 75%
    08:00 +34°C° 0 mm 4 mps 749 mmHg 72%
    09:00 +35°C° 0 mm 4 mps 750 mmHg 70%
    10:00 +36°C° 0 mm 5 mps 749 mmHg 65%
    11:00 +39°C° 0 mm 5 mps 749 mmHg 60%
    12:00 +40°C° 0 mm 5 mps 749 mmHg 55%
    13:00 +41°C° 0 mm 5 mps 748 mmHg 51%
    14:00 +42°C° 0 mm 5 mps 747 mmHg 47%
    15:00 +43°C° 0 mm 5 mps 747 mmHg 43%
    16:00 +42°C° 2.4 mm 5 mps 746 mmHg 49%
    17:00 +40°C° 2.4 mm 5 mps 746 mmHg 54%
    18:00 +39°C° 2.4 mm 6 mps 745 mmHg 60%
    19:00 +36°C° 12 mm 6 mps 747 mmHg 66%
    20:00 +35°C° 12 mm 7 mps 748 mmHg 71%
    21:00 +33°C° 12 mm 8 mps 749 mmHg 77%
    22:00 +33°C° 0 mm 7 mps 749 mmHg 78%
    23:00 +33°C° 0 mm 5 mps 749 mmHg 79%

    27 May, Monday

    Time Temperature Precipitation Wind Pressure Humidity
    00:00 +33°C° 0 mm 4 mps 749 mmHg 80%
    01:00 +32°C° 0 mm 4 mps 748 mmHg 82%
    02:00 +31°C° 0 mm 3 mps 748 mmHg 83%
    03:00 +31°C° 0 mm 3 mps 748 mmHg 85%
    04:00 +31°C° 0 mm 3 mps 748 mmHg 85%
    05:00 +32°C° 0 mm 4 mps 748 mmHg 85%
    06:00 +32°C° 0 mm 4 mps 749 mmHg 85%
    07:00 +33°C° 0 mm 4 mps 749 mmHg 81%
    08:00 +34°C° 0 mm 5 mps 750 mmHg 76%
    09:00 +35°C° 0 mm 5 mps 750 mmHg 72%
    10:00 +36°C° 0 mm 4 mps 750 mmHg 65%
    11:00 +38°C° 0 mm 4 mps 750 mmHg 59%
    12:00 +39°C° 0 mm 3 mps 749 mmHg 52%
    13:00 +42°C° 0 mm 3 mps 749 mmHg 47%
    14:00 +43°C° 0 mm 3 mps 748 mmHg 42%
    15:00 +43°C° 0 mm 2 mps 747 mmHg 36%
    16:00 +43°C° 0 mm 2 mps 747 mmHg 37%
    17:00 +43°C° 0 mm 2 mps 747 mmHg 38%
    18:00 +43°C° 0 mm 1 mps 746 mmHg 39%
    19:00 +42°C° 0.1 mm 3 mps 747 mmHg 46%
    20:00 +40°C° 0.1 mm 4 mps 748 mmHg 54%
    21:00 +38°C° 0.1 mm 6 mps 748 mmHg 61%
    22:00 +36°C° 0.4 mm 5 mps 748 mmHg 65%
    23:00 +35°C° 0.4 mm 4 mps 749 mmHg 70%

    28 May, Tuesday

    Time Temperature Precipitation Wind Pressure Humidity
    00:00 +34°C° 0.4 mm 3 mps 749 mmHg 75%
    01:00 +34°C° 0 mm 3 mps 749 mmHg 76%
    02:00 +33°C° 0 mm 3 mps 748 mmHg 77%
    03:00 +33°C° 0 mm 3 mps 748 mmHg 78%
    04:00 +33°C° 0 mm 3 mps 749 mmHg 78%
    05:00 +33°C° 0 mm 4 mps 749 mmHg 78%
    06:00 +33°C° 0 mm 4 mps 749 mmHg 79%
    07:00 +33°C° 0 mm 4 mps 750 mmHg 76%
    08:00 +34°C° 0 mm 4 mps 750 mmHg 74%
    09:00 +34°C° 0 mm 5 mps 751 mmHg 71%
    10:00 +36°C° 0 mm 4 mps 751 mmHg 65%
    11:00 +37°C° 0 mm 4 mps 750 mmHg 58%
    12:00 +40°C° 0 mm 4 mps 750 mmHg 51%
    13:00 +41°C° 0 mm 4 mps 749 mmHg 46%
    14:00 +43°C° 0 mm 4 mps 748 mmHg 41%
    15:00 +44°C° 0 mm 4 mps 747 mmHg 36%
    16:00 +43°C° 0 mm 4 mps 747 mmHg 38%
    17:00 +43°C° 0 mm 3 mps 747 mmHg 39%
    18:00 +42°C° 0 mm 3 mps 746 mmHg 41%
    19:00 +41°C° 0.4 mm 5 mps 747 mmHg 48%
    20:00 +39°C° 0.4 mm 6 mps 748 mmHg 55%
    21:00 +36°C° 0.4 mm 7 mps 749 mmHg 61%
    22:00 +35°C° 0 mm 6 mps 749 mmHg 65%
    23:00 +34°C° 0 mm 5 mps 749 mmHg 69%
    Show more